LPE2409 MROC-SPJC

Flight info

Callsign LPE2409
Flight time N/A
Altitude 35000
Route DOTAS3D DRAKE UM659 GYV UL780 TRU UV1 ATATU
Aircraft A320/M-SDE3FGHIRWY/LB1

Departure

Time 2026-04-29 19:59
Airport Juan Santamaría International Airport (MROC)

Arrival

Time N/A
Airport Jorge Chávez International Airport (SPJC)
Time Latitude Longitude Altitude Speed Heading
2026-04-29 19:44 9.99753 -84.20350 3034 ft 0 kts 339°
2026-04-29 19:52 9.99744 -84.20347 3034 ft 5 kts 339°
2026-04-29 19:52 9.99714 -84.20335 3033 ft 5 kts 336°
2026-04-29 19:52 9.99699 -84.20327 3035 ft 2 kts 279°
2026-04-29 19:52 9.99702 -84.20313 3033 ft 1 kts 253°
2026-04-29 19:53 9.99695 -84.20329 3033 ft 2 kts 249°
2026-04-29 19:53 9.99692 -84.20337 3033 ft 0 kts 249°
2026-04-29 19:55 9.99685 -84.20358 3034 ft 13 kts 249°
2026-04-29 19:55 9.99633 -84.20500 3035 ft 30 kts 250°
2026-04-29 19:55 9.99554 -84.20707 3034 ft 32 kts 248°
2026-04-29 19:56 9.99473 -84.20916 3029 ft 33 kts 249°
2026-04-29 19:56 9.99393 -84.21135 3009 ft 29 kts 249°
2026-04-29 19:56 9.99317 -84.21336 2996 ft 32 kts 249°
2026-04-29 19:56 9.99229 -84.21564 2977 ft 37 kts 249°
2026-04-29 19:57 9.99140 -84.21813 2957 ft 39 kts 249°
2026-04-29 19:57 9.99093 -84.21975 2951 ft 25 kts 280°
2026-04-29 19:57 9.99065 -84.22173 2942 ft 22 kts 243°
2026-04-29 19:57 9.98972 -84.22190 2945 ft 12 kts 156°
2026-04-29 19:58 9.98921 -84.22141 2947 ft 10 kts 83°
2026-04-29 19:58 9.98932 -84.22109 2943 ft 0 kts 68°
2026-04-29 19:58 9.98965 -84.22022 2953 ft 44 kts 69°
2026-04-29 19:58 9.99153 -84.21523 2984 ft 106 kts 69°
2026-04-29 19:59 9.99475 -84.20655 3033 ft 154 kts 69°
2026-04-29 19:59 9.99898 -84.19555 3404 ft 173 kts 73°
2026-04-29 19:59 10.00358 -84.18393 4057 ft 186 kts 68°
2026-04-29 19:59 10.00872 -84.17119 4252 ft 205 kts 69°
2026-04-29 20:00 10.01427 -84.15732 4592 ft 217 kts 68°
2026-04-29 20:00 10.01988 -84.14329 5146 ft 219 kts 67°
2026-04-29 20:00 10.02480 -84.12855 5605 ft 224 kts 84°
2026-04-29 20:00 10.02162 -84.11295 5910 ft 240 kts 120°
2026-04-29 20:01 10.01017 -84.09973 6249 ft 257 kts 136°
2026-04-29 20:01 9.99586 -84.08845 6865 ft 261 kts 142°
2026-04-29 20:01 9.98088 -84.07776 7511 ft 264 kts 143°
2026-04-29 20:01 9.96586 -84.06697 8166 ft 265 kts 142°
2026-04-29 20:02 9.95094 -84.05587 8848 ft 266 kts 142°
2026-04-29 20:02 9.93476 -84.04672 9503 ft 270 kts 161°
2026-04-29 20:02 9.91615 -84.04375 10138 ft 273 kts 182°
2026-04-29 20:02 9.90370 -84.04559 10514 ft 275 kts 196°
2026-04-29 20:03 9.88159 -84.05827 11278 ft 280 kts 222°
2026-04-29 20:03 9.86716 -84.07156 11872 ft 282 kts 222°
2026-04-29 20:03 9.85264 -84.08497 12452 ft 284 kts 221°
2026-04-29 20:03 9.83793 -84.09851 12938 ft 286 kts 221°
2026-04-29 20:04 9.82310 -84.11212 13525 ft 288 kts 221°
2026-04-29 20:04 9.80818 -84.12577 14047 ft 290 kts 221°
2026-04-29 20:04 9.79311 -84.13953 14545 ft 293 kts 221°
2026-04-29 20:04 9.77765 -84.15365 14764 ft 307 kts 221°
2026-04-29 20:05 9.76133 -84.16859 14879 ft 324 kts 221°
2026-04-29 20:05 9.74420 -84.18426 14999 ft 340 kts 221°
2026-04-29 20:05 9.72615 -84.20062 15117 ft 355 kts 219°
2026-04-29 20:05 9.70525 -84.21484 15214 ft 368 kts 207°
2026-04-29 20:06 9.68118 -84.22444 15507 ft 375 kts 195°
2026-04-29 20:06 9.65536 -84.22876 15900 ft 380 kts 183°
2026-04-29 20:06 9.62887 -84.22755 16283 ft 384 kts 174°
2026-04-29 20:06 9.60218 -84.22386 16704 ft 388 kts 168°
2026-04-29 20:07 9.57577 -84.21752 17103 ft 391 kts 167°
2026-04-29 20:07 9.54924 -84.21105 17536 ft 395 kts 167°
2026-04-29 20:07 9.52243 -84.20454 17916 ft 398 kts 167°
2026-04-29 20:07 9.49532 -84.19793 18287 ft 402 kts 167°
2026-04-29 20:08 9.46812 -84.19131 18613 ft 404 kts 168°
2026-04-29 20:08 9.44996 -84.18689 18852 ft 405 kts 168°
2026-04-29 20:08 9.41328 -84.17798 19349 ft 406 kts 168°
2026-04-29 20:08 9.38572 -84.17129 19709 ft 408 kts 167°
2026-04-29 20:09 9.35805 -84.16456 20066 ft 410 kts 167°
2026-04-29 20:09 9.33026 -84.15780 20407 ft 412 kts 167°
2026-04-29 20:09 9.30236 -84.15103 20752 ft 413 kts 168°
2026-04-29 20:09 9.27429 -84.14423 21096 ft 415 kts 168°
2026-04-29 20:10 9.24619 -84.13743 21435 ft 417 kts 168°
2026-04-29 20:10 9.21790 -84.13061 21771 ft 418 kts 168°
2026-04-29 20:10 9.18956 -84.12375 22091 ft 420 kts 168°
2026-04-29 20:10 9.16106 -84.11681 22420 ft 422 kts 168°
2026-04-29 20:11 9.13252 -84.10986 22747 ft 423 kts 168°
2026-04-29 20:11 9.10385 -84.10288 23066 ft 425 kts 168°
2026-04-29 20:11 9.07495 -84.09589 23379 ft 427 kts 168°
2026-04-29 20:11 9.04605 -84.08892 23644 ft 428 kts 168°
2026-04-29 20:12 9.02688 -84.08429 23820 ft 429 kts 168°
2026-04-29 20:12 8.99784 -84.07727 24088 ft 430 kts 168°
2026-04-29 20:12 8.96870 -84.07020 24358 ft 431 kts 168°
2026-04-29 20:12 8.93959 -84.06311 24631 ft 432 kts 168°
2026-04-29 20:13 8.91033 -84.05599 24880 ft 432 kts 168°
2026-04-29 20:13 8.88105 -84.04887 25136 ft 433 kts 169°
2026-04-29 20:13 8.85172 -84.04177 25383 ft 434 kts 169°
2026-04-29 20:13 8.82223 -84.03465 25639 ft 435 kts 169°
2026-04-29 20:14 8.79275 -84.02756 25888 ft 436 kts 169°
2026-04-29 20:14 8.76323 -84.02043 26143 ft 437 kts 169°
2026-04-29 20:14 8.73363 -84.01327 26397 ft 438 kts 169°
2026-04-29 20:14 8.70389 -84.00611 26650 ft 439 kts 169°
2026-04-29 20:15 8.67447 -83.99801 26899 ft 442 kts 163°
2026-04-29 20:15 8.64572 -83.98677 27132 ft 443 kts 161°
2026-04-29 20:15 8.61703 -83.97543 27383 ft 444 kts 161°
2026-04-29 20:15 8.58814 -83.96413 27621 ft 444 kts 162°
2026-04-29 20:16 8.55930 -83.95290 27850 ft 445 kts 162°
2026-04-29 20:16 8.53036 -83.94164 28067 ft 446 kts 162°
2026-04-29 20:16 8.50138 -83.93031 28282 ft 447 kts 162°
2026-04-29 20:16 8.47237 -83.91895 28484 ft 448 kts 162°
2026-04-29 20:17 8.44326 -83.90755 28696 ft 449 kts 162°
2026-04-29 20:17 8.41414 -83.89617 28910 ft 450 kts 162°
2026-04-29 20:17 8.38486 -83.88473 29114 ft 450 kts 162°
2026-04-29 20:17 8.35558 -83.87325 29313 ft 451 kts 162°
2026-04-29 20:18 8.32629 -83.86178 29503 ft 452 kts 162°
2026-04-29 20:18 8.29698 -83.85031 29796 ft 451 kts 162°
2026-04-29 20:18 8.26776 -83.83887 30077 ft 450 kts 162°
2026-04-29 20:18 8.23864 -83.82746 30307 ft 449 kts 162°
2026-04-29 20:19 8.20957 -83.81605 30526 ft 448 kts 162°
2026-04-29 20:19 8.18053 -83.80466 30763 ft 447 kts 162°
2026-04-29 20:19 8.15153 -83.79332 30994 ft 447 kts 162°
2026-04-29 20:19 8.12257 -83.78204 31220 ft 446 kts 162°
2026-04-29 20:20 8.09369 -83.77078 31459 ft 445 kts 162°
2026-04-29 20:20 8.06475 -83.75947 31700 ft 444 kts 162°
2026-04-29 20:20 8.03597 -83.74822 31935 ft 444 kts 162°
2026-04-29 20:20 8.00717 -83.73699 32177 ft 443 kts 162°
2026-04-29 20:21 7.97880 -83.72594 32412 ft 442 kts 162°
2026-04-29 20:21 7.95014 -83.71478 32652 ft 442 kts 162°
2026-04-29 20:21 7.92107 -83.70343 32899 ft 441 kts 162°
2026-04-29 20:21 7.89296 -83.69243 33191 ft 439 kts 162°
2026-04-29 20:22 7.86455 -83.68131 33499 ft 437 kts 162°
2026-04-29 20:22 7.83627 -83.67026 33768 ft 435 kts 162°
2026-04-29 20:22 7.80812 -83.65923 34004 ft 434 kts 162°
2026-04-29 20:22 7.77989 -83.64821 34211 ft 434 kts 162°
2026-04-29 20:23 7.75173 -83.63729 34403 ft 434 kts 162°
2026-04-29 20:23 7.72365 -83.62639 34591 ft 433 kts 162°
2026-04-29 20:23 7.69550 -83.61544 34761 ft 434 kts 162°
2026-04-29 20:23 7.66720 -83.60442 34821 ft 436 kts 162°
2026-04-29 20:24 7.61012 -83.58212 34826 ft 445 kts 162°
2026-04-29 20:24 7.55195 -83.55944 34827 ft 451 kts 162°
2026-04-29 20:25 7.49353 -83.53666 34830 ft 449 kts 162°
2026-04-29 20:25 7.43542 -83.51403 34831 ft 447 kts 162°
2026-04-29 20:26 7.37739 -83.49143 34834 ft 447 kts 162°
2026-04-29 20:26 7.31943 -83.46888 34834 ft 447 kts 162°
2026-04-29 20:27 7.27118 -83.45009 34826 ft 447 kts 162°
2026-04-29 20:27 7.20365 -83.42386 34833 ft 447 kts 162°
2026-04-29 20:28 7.14562 -83.40131 34838 ft 447 kts 162°
2026-04-29 20:28 7.08756 -83.37872 34838 ft 447 kts 162°
2026-04-29 20:29 7.02940 -83.35609 34836 ft 447 kts 162°
2026-04-29 20:29 6.97143 -83.33358 34835 ft 447 kts 162°
2026-04-29 20:30 6.91345 -83.31103 34836 ft 447 kts 162°
2026-04-29 20:30 6.85549 -83.28852 34833 ft 446 kts 162°
2026-04-29 20:31 6.79756 -83.26596 34832 ft 446 kts 162°
2026-04-29 20:31 6.73965 -83.24349 34835 ft 446 kts 162°
2026-04-29 20:32 6.68169 -83.22102 34838 ft 446 kts 162°
2026-04-29 20:32 6.62379 -83.19860 34839 ft 446 kts 162°
2026-04-29 20:33 6.56588 -83.17616 34840 ft 446 kts 162°
2026-04-29 20:33 6.50841 -83.15378 34840 ft 446 kts 162°
2026-04-29 20:34 6.45049 -83.13127 34830 ft 446 kts 162°
2026-04-29 20:34 6.39254 -83.10886 34833 ft 446 kts 162°
2026-04-29 20:35 6.33456 -83.08638 34833 ft 446 kts 162°
2026-04-29 20:35 6.27653 -83.06387 34835 ft 446 kts 162°
2026-04-29 20:36 6.21858 -83.04140 34839 ft 446 kts 162°
2026-04-29 20:36 6.16060 -83.01899 34835 ft 446 kts 162°
2026-04-29 20:37 6.10263 -82.99654 34837 ft 446 kts 162°
2026-04-29 20:37 6.04467 -82.97420 34836 ft 446 kts 162°
2026-04-29 20:38 5.98715 -82.95198 34833 ft 446 kts 162°
2026-04-29 20:38 5.92925 -82.92953 34834 ft 445 kts 162°
2026-04-29 20:39 5.87142 -82.90717 34834 ft 445 kts 162°
2026-04-29 20:39 5.81340 -82.88504 34834 ft 445 kts 162°
2026-04-29 20:40 5.75541 -82.86303 34835 ft 445 kts 162°
2026-04-29 20:40 5.69750 -82.84100 34835 ft 445 kts 162°
2026-04-29 20:41 5.63960 -82.81892 34832 ft 445 kts 162°
2026-04-29 20:41 5.58170 -82.79682 34832 ft 445 kts 162°
2026-04-29 20:42 5.52386 -82.77482 34828 ft 445 kts 162°
2026-04-29 20:42 5.46631 -82.75296 34827 ft 445 kts 162°
2026-04-29 20:43 5.40843 -82.73093 34829 ft 445 kts 162°
2026-04-29 20:43 5.35050 -82.70888 34828 ft 445 kts 162°
2026-04-29 20:44 5.29260 -82.68686 34829 ft 445 kts 162°
2026-04-29 20:44 5.23470 -82.66481 34825 ft 445 kts 162°
2026-04-29 20:45 5.17679 -82.64279 34828 ft 445 kts 162°
2026-04-29 20:45 5.11884 -82.62070 34828 ft 445 kts 162°
2026-04-29 20:46 5.06089 -82.59869 34826 ft 445 kts 162°
2026-04-29 20:46 5.00299 -82.57667 34826 ft 445 kts 162°
2026-04-29 20:47 4.94505 -82.55469 34824 ft 445 kts 162°
2026-04-29 20:47 4.89688 -82.53644 34820 ft 445 kts 162°
2026-04-29 20:48 4.82911 -82.51059 34819 ft 446 kts 162°
2026-04-29 20:48 4.77155 -82.48866 34818 ft 446 kts 162°
2026-04-29 20:49 4.71346 -82.46664 34816 ft 446 kts 162°
2026-04-29 20:49 4.65538 -82.44464 34818 ft 446 kts 162°
2026-04-29 20:50 4.59733 -82.42259 34821 ft 446 kts 162°
2026-04-29 20:50 4.53923 -82.40046 34824 ft 446 kts 162°
2026-04-29 20:51 4.48117 -82.37838 34822 ft 446 kts 162°
2026-04-29 20:51 4.42321 -82.35625 34824 ft 446 kts 162°
2026-04-29 20:52 4.36527 -82.33413 34825 ft 446 kts 162°
2026-04-29 20:52 4.30731 -82.31196 34824 ft 446 kts 162°
2026-04-29 20:53 4.24936 -82.28983 34823 ft 445 kts 162°
2026-04-29 20:53 4.19140 -82.26771 34822 ft 445 kts 162°